This demonstration page uses our WeatherBlox Daily Observations layout. Learn more.

Left ArrowRight Arrow

36.17497, -115.13722

Hourly Observations for February 10, 2021

Temp ( °F °C ) Dew Point ( °F °C ) Humidity (%) Winds ( mph kmh ) Pressure ( in mb ) Visibility ( mi km ) Precip ( " mm )
12:53 am 00:53 Cloudy 56 13.3 26 -3.3 32 32 N 6 9 29.92 1013 10 16 0.00 0.00
1:53 am 01:53 Partly Cloudy 54 12.2 25 -3.9 33 33 Calm 29.91 1013 10 16 0.00 0.00
2:53 am 02:53 Clear 53 11.7 25 -3.9 34 34 WNW 6 9 29.91 1013 10 16 0.00 0.00
3:53 am 03:53 Clear 52 11.1 26 -3.3 37 37 NW 6 9 29.90 1013 10 16 0.00 0.00
4:53 am 04:53 Mostly Cloudy 54 12.2 24 -4.4 31 31 NW 8 13 29.91 1013 10 16 0.00 0.00
5:53 am 05:53 Clear 51 10.6 26 -3.3 38 38 SW 3 6 29.93 1014 10 16 0.00 0.00
6:53 am 06:53 Sunny 51 10.6 27 -2.8 39 39 W 6 9 29.96 1014 10 16 0.00 0.00
7:53 am 07:53 Sunny 56 13.3 25 -3.9 30 30 N 7 11 29.97 1015 10 16 0.00 0.00
8:53 am 08:53 Sunny 60 15.6 25 -3.9 26 26 Calm 29.98 1015 10 16 0.00 0.00
9:53 am 09:53 Sunny 63 17.2 25 -3.9 24 24 Calm 29.99 1016 10 16 0.00 0.00
10:53 am 10:53 Sunny 63 17.2 24 -4.4 23 23 Calm 29.98 1015 10 16 0.00 0.00
11:53 am 11:53 Mostly Sunny 66 18.9 25 -3.9 21 21 VRB 6 9 29.96 1014 10 16 0.00 0.00
12:53 pm 12:53 Sunny 68 20 25 -3.9 20 20 Calm 29.93 1013 10 16 0.00 0.00
1:53 pm 13:53 Sunny 67 19.4 26 -3.3 21 21 S 3 6 29.91 1013 10 16 0.00 0.00
3:53 pm 15:53 Sunny 69 20.6 27 -2.8 21 21 Calm 29.90 1012 10 16 0.00 0.00
4:53 pm 16:53 Sunny 68 20 26 -3.3 21 21 SSE 6 9 29.90 1013 10 16 0.00 0.00
5:53 pm 17:53 Clear 64 17.8 26 -3.3 24 24 E 6 9 29.92 1013 10 16 0.00 0.00
6:53 pm 18:53 Clear 63 17.2 26 -3.3 25 25 Calm 29.94 1014 10 16 0.00 0.00
7:53 pm 19:53 Clear 59 15 28 -2.2 31 31 NW 6 9 29.95 1014 10 16 0.00 0.00
8:53 pm 20:53 Clear 57 13.9 30 -1.1 36 36 WNW 9 15 29.96 1015 10 16 0.00 0.00
9:53 pm 21:53 Clear 55 12.8 29 -1.7 37 37 NW 7 11 29.96 1015 10 16 0.00 0.00
10:53 pm 22:53 Clear 53 11.7 28 -2.2 38 38 WNW 8 13 29.98 1015 10 16 0.00 0.00
11:53 pm 23:53 Clear 53 11.7 28 -2.2 38 38 Calm 29.98 1015 10 16 0.00 0.00

Powered by AerisWeather